"startDT [UTC]","vpos","CH4 [ppm]","stdev(CH4) [ppm]","CO2 [ppm]","stdev(CO2) [ppm]","H2O [ppm]","stdev(H2O)","p_LGR [torr]","T_LGR [C]","mt1_LGR [us]","mt2_LGR [us]","T_ECpre [C]","T_EC1 [C]","T_EC2 [C]","p_inlet [hPa]","p_in [hPa]","p_out [hPa]","T_inlet [C]","RH_inlet [%]","dwpt_inlet [C]","T_vent [C]","RH_vent [%]","dwpt_vent [C]","flow_vent [l min-1]","flow_inlet [l min-1]","dwpt_sample [C]","T_room [C]"
2013-01-24 00:00:00,0.0,1.9328,0.0010,403.81,0.43,-1.0,0.0,138.05,31.32,24.65,36.42,0.04,-272.75,-272.75,-49,551,-940,23.3,0.6,-40.5,23.2,0.7,-39.5,5.73,2.42,-33.4,28.0
2013-01-24 00:01:00,0.0,1.9324,0.0011,403.85,0.44,-1.0,0.0,138.05,31.32,24.65,36.41,0.04,-272.75,-272.75,-49,551,-940,23.3,0.6,-40.2,23.2,0.7,-39.4,5.73,2.42,-33.4,28.0
2013-01-24 00:02:00,0.0,1.9325,0.0009,403.99,0.49,-1.0,0.0,138.05,31.32,24.66,36.41,0.04,-272.75,-272.75,-49,551,-940,23.3,0.6,-40.2,23.2,0.7,-39.5,5.73,2.42,-33.4,28.0
2013-01-24 00:03:00,0.0,1.9325,0.0009,403.79,0.48,-1.0,0.0,138.05,31.32,24.65,36.42,0.04,-272.75,-272.75,-49,551,-940,23.3,0.6,-40.2,23.2,0.7,-39.5,5.73,2.41,-33.4,27.9
2013-01-24 00:04:00,0.0,1.9325,0.0009,403.87,0.39,-1.0,0.0,138.05,31.32,24.65,36.42,0.04,-272.75,-272.75,-49,551,-940,23.3,0.6,-40.1,23.2,0.7,-39.3,5.73,2.41,-33.4,28.0
2013-01-24 00:05:00,0.0,1.9325,0.0008,403.79,0.44,-1.0,0.0,138.05,31.32,24.65,36.41,0.04,-272.75,-272.75,-49,551,-940,23.3,0.6,-40.2,23.2,0.7,-39.1,5.73,2.41,-33.5,27.9
2013-01-24 00:06:00,0.0,1.9330,0.0009,403.95,0.42,-1.0,0.0,138.05,31.32,24.65,36.41,0.04,-272.75,-272.76,-49,551,-940,23.3,0.6,-40.0,23.2,0.7,-39.2,5.73,2.41,-33.5,27.9
2013-01-24 00:07:00,0.0,1.9344,0.0013,403.85,0.41,-1.0,0.0,138.05,31.32,24.65,36.41,0.04,-272.75,-272.75,-49,551,-940,23.3,0.7,-39.7,23.2,0.7,-38.8,5.73,2.41,-33.5,27.9
2013-01-24 00:08:00,0.0,1.9346,0.0009,403.88,0.41,-1.0,0.0,138.05,31.33,24.65,36.42,0.04,-272.75,-272.75,-49,551,-940,23.3,0.7,-39.7,23.2,0.7,-38.8,5.73,2.41,-33.5,27.9
2013-01-24 00:09:00,0.0,1.9338,0.0009,403.76,0.37,-1.0,0.0,138.05,31.33,24.66,36.42,0.04,-272.75,-272.75,-49,551,-940,23.3,0.7,-39.7,23.2,0.7,-38.8,5.73,2.40,-33.5,27.8
2013-01-24 00:10:00,0.0,1.9329,0.0008,403.83,0.41,-1.0,0.0,138.05,31.33,24.66,36.41,0.04,-272.75,-272.75,-49,551,-940,23.3,0.7,-39.7,23.2,0.7,-38.9,5.73,2.40,-33.5,27.9
2013-01-24 00:11:00,0.0,1.9335,0.0011,403.86,0.40,-1.0,0.0,138.05,31.33,24.65,36.42,0.04,-272.75,-272.75,-49,551,-940,23.3,0.7,-39.7,23.2,0.7,-38.8,5.73,2.40,-33.5,27.9
2013-01-24 00:12:00,0.0,1.9331,0.0010,403.76,0.42,-1.0,0.0,138.05,31.33,24.65,36.41,0.04,-272.75,-272.75,-49,551,-940,23.3,0.7,-39.7,23.2,0.8,-38.7,5.73,2.40,-33.5,27.9
2013-01-24 00:13:00,0.0,1.9331,0.0010,403.85,0.38,-1.0,0.0,138.05,31.33,24.65,36.42,0.04,-272.75,-272.75,-49,551,-940,23.3,0.7,-39.4,23.2,0.8,-38.6,5.73,2.40,-33.5,27.9
2013-01-24 00:14:00,0.0,1.9327,0.0010,403.74,0.45,-1.0,0.0,138.05,31.33,24.65,36.42,0.04,-272.75,-272.75,-49,551,-940,23.3,0.7,-39.4,23.2,0.8,-38.6,5.73,2.40,-33.5,27.9
2013-01-24 00:15:00,0.0,1.9320,0.0010,403.71,0.36,-1.0,0.0,138.05,31.33,24.65,36.42,0.04,-272.75,-272.75,-49,551,-940,23.3,0.7,-39.4,23.2,0.8,-38.5,5.73,2.40,-33.5,27.9
2013-01-24 00:16:00,0.0,1.9316,0.0007,403.72,0.41,-1.0,0.0,138.05,31.34,24.65,36.41,0.04,-272.75,-272.75,-49,551,-940,23.3,0.7,-39.3,23.2,0.8,-38.4,5.73,2.40,-33.5,27.9
2013-01-24 00:17:00,0.0,1.9315,0.0010,403.52,0.42,-1.0,0.0,138.05,31.34,24.66,36.41,0.04,-272.75,-272.75,-49,551,-940,23.3,0.7,-39.4,23.2,0.8,-38.4,5.73,2.40,-33.5,27.9
2013-01-24 00:18:00,0.0,1.9314,0.0010,403.49,0.41,-1.0,0.0,138.05,31.34,24.65,36.42,0.04,-272.75,-272.75,-49,551,-940,23.3,0.7,-39.4,23.2,0.8,-38.4,5.73,2.40,-33.5,27.9
2013-01-24 00:19:00,0.0,1.9313,0.0010,403.52,0.39,-1.0,0.0,138.04,31.34,24.65,36.42,0.04,-272.75,-272.75,-49,551,-940,23.3,0.7,-39.4,23.2,0.8,-38.5,5.73,2.40,-33.5,28.0
2013-01-24 00:20:00,0.0,1.9319,0.0010,403.68,0.36,-1.0,0.0,138.05,31.34,24.66,36.41,0.04,-272.75,-272.75,-49,551,-940,23.3,0.7,-39.7,23.1,0.7,-38.8,5.73,2.40,-33.6,27.9
2013-01-24 00:21:00,0.0,1.9312,0.0012,403.77,0.32,-1.0,0.0,138.05,31.34,24.66,36.41,0.04,-272.75,-272.75,-49,551,-940,23.3,0.7,-39.7,23.1,0.7,-38.8,5.73,2.41,-33.5,28.0
2013-01-24 00:22:00,0.0,1.9318,0.0007,403.60,0.42,-1.0,0.0,138.04,31.34,24.65,36.41,0.04,-272.75,-272.75,-49,551,-940,23.3,0.6,-40.1,23.1,0.7,-39.1,5.73,2.41,-33.6,28.0
2013-01-24 00:23:00,0.0,1.9319,0.0009,403.57,0.38,-1.0,0.0,138.05,31.35,24.65,36.42,0.04,-272.75,-272.75,-48,551,-940,23.3,0.6,-40.2,23.1,0.7,-39.2,5.73,2.41,-33.5,28.0
2013-01-24 00:24:00,0.0,1.9319,0.0008,403.62,0.36,-1.0,0.0,138.04,31.35,24.66,36.42,0.04,-272.75,-272.75,-49,551,-940,23.3,0.6,-40.4,23.1,0.7,-39.4,5.73,2.42,-33.6,27.9
2013-01-24 00:25:00,0.0,1.9323,0.0012,403.72,0.40,-1.0,0.0,138.04,31.35,24.65,36.42,0.04,-272.75,-272.75,-49,551,-940,23.3,0.6,-40.5,23.1,0.7,-39.5,5.73,2.42,-33.5,28.0
2013-01-24 00:26:00,0.0,1.9311,0.0011,403.63,0.39,-1.0,0.0,138.05,31.35,24.65,36.41,0.04,-272.75,-272.75,-49,551,-940,23.3,0.6,-40.5,23.1,0.7,-39.5,5.73,2.41,-33.5,27.9
2013-01-24 00:27:00,0.0,1.9302,0.0009,403.60,0.44,-1.0,0.0,138.05,31.35,24.66,36.42,0.04,-272.75,-272.75,-49,551,-940,23.3,0.6,-40.5,23.1,0.7,-39.5,5.73,2.41,-33.6,27.9
2013-01-24 00:28:00,0.0,1.9312,0.0009,403.62,0.42,-1.0,0.0,138.05,31.35,24.66,36.42,0.04,-272.75,-272.75,-49,551,-940,23.3,0.6,-40.6,23.2,0.7,-39.4,5.73,2.41,-33.6,27.9
2013-01-24 00:29:00,0.0,1.9318,0.0011,403.83,0.39,-1.0,0.0,138.05,31.35,24.65,36.41,0.04,-272.75,-272.76,-49,551,-940,23.3,0.6,-40.5,23.2,0.7,-39.5,5.73,2.41,-33.6,27.9
2013-01-24 00:30:00,0.0,1.9310,0.0009,403.67,0.39,-1.0,0.0,138.05,31.35,24.65,36.42,0.04,-272.75,-272.75,-49,551,-940,23.3,0.6,-40.2,23.1,0.7,-39.5,5.73,2.41,-33.6,27.9
2013-01-24 00:31:00,0.0,1.9304,0.0009,403.64,0.43,-1.0,0.0,138.05,31.35,24.65,36.41,0.04,-272.75,-272.75,-49,551,-940,23.3,0.6,-40.1,23.2,0.7,-39.5,5.73,2.41,-33.6,27.9
2013-01-24 00:32:00,0.0,1.9313,0.0011,403.76,0.33,-1.0,0.0,138.05,31.35,24.65,36.41,0.04,-272.75,-272.75,-49,551,-940,23.3,0.6,-40.2,23.2,0.7,-39.1,5.73,2.42,-33.6,27.9
2013-01-24 00:33:00,0.0,1.9315,0.0008,403.62,0.39,-1.0,0.0,138.05,31.36,24.65,36.42,0.04,-272.75,-272.76,-49,551,-940,23.3,0.6,-40.2,23.1,0.7,-39.1,5.73,2.41,-33.6,27.9
2013-01-24 00:34:00,0.0,1.9305,0.0009,403.69,0.44,-1.0,0.0,138.05,31.36,24.66,36.41,0.04,-272.75,-272.75,-49,551,-940,23.3,0.6,-40.2,23.2,0.7,-39.1,5.73,2.42,-33.6,28.0
2013-01-24 00:35:00,0.0,1.9315,0.0009,403.70,0.31,-1.0,0.0,138.05,31.36,24.65,36.42,0.04,-272.75,-272.75,-49,551,-940,23.3,0.6,-40.1,23.2,0.7,-39.1,5.73,2.41,-33.6,28.0
2013-01-24 00:36:00,0.0,1.9317,0.0010,403.79,0.34,-1.0,0.0,138.05,31.36,24.65,36.41,0.04,-272.75,-272.75,-49,551,-940,23.2,0.6,-40.1,23.2,0.7,-39.1,5.73,2.41,-33.6,27.9
2013-01-24 00:37:00,0.0,1.9319,0.0010,403.83,0.47,-1.0,0.0,138.05,31.36,24.65,36.41,0.04,-272.75,-272.75,-49,551,-940,23.3,0.6,-40.1,23.2,0.7,-39.1,5.73,2.41,-33.6,27.9
2013-01-24 00:38:00,0.0,1.9308,0.0010,403.78,0.40,-1.0,0.0,138.05,31.36,24.66,36.41,0.04,-272.75,-272.75,-49,551,-940,23.3,0.7,-40.0,23.2,0.7,-39.0,5.73,2.41,-33.6,28.0
2013-01-24 00:39:00,0.0,1.9311,0.0010,403.63,0.45,-1.0,0.0,138.05,31.36,24.65,36.42,0.04,-272.76,-272.75,-49,551,-940,23.3,0.7,-39.7,23.2,0.7,-38.8,5.73,2.41,-33.6,28.0
2013-01-24 00:40:00,0.0,1.9312,0.0011,403.78,0.36,-1.0,0.0,138.05,31.36,24.65,36.41,0.04,-272.75,-272.75,-49,551,-940,23.2,0.7,-39.8,23.2,0.8,-38.7,5.73,2.40,-33.6,28.0
2013-01-24 00:41:00,0.0,1.9310,0.0011,403.66,0.37,-1.0,0.0,138.05,31.37,24.66,36.41,0.04,-272.75,-272.75,-49,551,-940,23.3,0.7,-39.5,23.2,0.8,-38.6,5.73,2.39,-33.6,28.0
2013-01-24 00:42:00,0.0,1.9313,0.0009,403.70,0.41,-1.0,0.0,138.04,31.37,24.65,36.42,0.04,-272.75,-272.75,-49,551,-940,23.3,0.7,-39.4,23.2,0.8,-38.4,5.73,2.39,-33.7,28.0
2013-01-24 00:43:00,0.0,1.9306,0.0009,403.69,0.42,-1.0,0.0,138.05,31.37,24.65,36.42,0.04,-272.75,-272.75,-49,551,-940,23.3,0.7,-39.3,23.2,0.8,-38.4,5.73,2.39,-33.6,28.0
2013-01-24 00:44:00,0.0,1.9305,0.0010,403.75,0.35,-1.0,0.0,138.04,31.37,24.66,36.43,0.04,-272.75,-272.75,-49,551,-940,23.3,0.7,-39.0,23.2,0.8,-38.2,5.73,2.39,-33.6,27.9
2013-01-24 00:45:00,0.0,1.9307,0.0010,403.80,0.42,-1.0,0.0,138.04,31.37,24.65,36.41,0.04,-272.75,-272.75,-49,551,-940,23.3,0.7,-39.0,23.2,0.8,-38.0,5.73,2.40,-33.6,27.9
2013-01-24 00:46:00,0.0,1.9308,0.0010,403.68,0.39,-1.0,0.0,138.04,31.37,24.65,36.42,0.04,-272.75,-272.75,-49,551,-940,23.3,0.7,-38.9,23.2,0.8,-38.1,5.73,2.40,-33.7,27.9
2013-01-24 00:47:00,0.0,1.9311,0.0008,403.71,0.35,-1.0,0.0,138.04,31.37,24.65,36.41,0.04,-272.75,-272.75,-49,551,-940,23.3,0.7,-38.8,23.2,0.8,-38.1,5.73,2.40,-33.7,27.9
2013-01-24 00:48:00,0.0,1.9311,0.0009,403.72,0.40,-1.0,0.0,138.04,31.37,24.65,36.41,0.04,-272.75,-272.75,-49,551,-940,23.2,0.7,-38.7,23.1,0.8,-37.7,5.73,2.41,-33.7,27.9
2013-01-24 00:49:00,0.0,1.9313,0.0010,403.86,0.35,-1.0,0.0,138.05,31.37,24.65,36.41,0.04,-272.75,-272.75,-49,551,-940,23.3,0.7,-38.7,23.2,0.8,-37.8,5.73,2.41,-33.7,27.9
2013-01-24 00:50:00,0.0,1.9311,0.0010,403.74,0.39,-1.0,0.0,138.04,31.37,24.65,36.42,0.04,-272.75,-272.75,-49,551,-940,23.3,0.8,-38.6,23.2,0.8,-37.7,5.73,2.41,-33.7,27.9
2013-01-24 00:51:00,0.0,1.9304,0.0010,403.65,0.42,-1.0,0.0,138.05,31.38,24.66,36.42,0.04,-272.75,-272.75,-49,551,-940,23.3,0.8,-38.6,23.2,0.8,-37.8,5.73,2.41,-33.7,27.9
2013-01-24 00:52:00,0.0,1.9302,0.0011,403.75,0.39,-1.0,0.0,138.05,31.38,24.66,36.42,0.04,-272.75,-272.75,-49,551,-940,23.3,0.7,-38.9,23.2,0.8,-38.1,5.73,2.41,-33.7,27.9
2013-01-24 00:53:00,0.0,1.9301,0.0010,403.70,0.39,-1.0,0.0,138.04,31.38,24.65,36.42,0.04,-272.75,-272.75,-49,551,-940,23.2,0.7,-39.0,23.2,0.8,-38.1,5.73,2.42,-33.7,27.9
2013-01-24 00:54:00,0.0,1.9302,0.0010,403.73,0.46,-1.0,0.0,138.05,31.38,24.66,36.41,0.04,-272.75,-272.75,-49,551,-940,23.3,0.7,-39.0,23.2,0.8,-38.1,5.73,2.42,-33.7,27.9
2013-01-24 00:55:00,0.0,1.9300,0.0009,403.69,0.43,-1.0,0.0,138.05,31.38,24.66,36.41,0.04,-272.75,-272.75,-49,551,-940,23.2,0.7,-38.7,23.2,0.8,-37.9,5.73,2.42,-33.7,27.9
2013-01-24 00:56:00,0.0,1.9300,0.0010,403.73,0.46,-1.0,0.0,138.05,31.38,24.66,36.42,0.27,-270.84,-272.71,-49,551,-940,23.3,0.8,-38.6,23.1,0.8,-37.8,5.42,2.51,-37.4,27.9
2013-01-24 00:57:00,0.0,1.9302,0.0010,403.72,0.43,-1.0,0.0,138.04,31.38,24.65,36.42,0.04,-272.75,-272.75,-49,551,-940,23.3,0.8,-38.6,23.2,0.8,-37.7,5.73,2.42,-33.7,27.9
2013-01-24 00:58:00,0.0,1.9299,0.0009,403.73,0.34,-1.0,0.0,138.04,31.38,24.65,36.42,0.04,-272.75,-272.75,-49,551,-940,23.2,0.8,-38.6,23.2,0.8,-37.7,5.73,2.42,-33.7,27.9
2013-01-24 00:59:00,0.0,1.9300,0.0010,403.74,0.39,-1.0,0.0,138.04,31.38,24.66,36.41,0.04,-272.75,-272.75,-49,551,-940,23.2,0.7,-38.7,23.2,0.8,-37.8,5.73,2.42,-33.7,27.9
2013-01-24 01:00:00,0.0,1.9299,0.0009,403.64,0.40,-1.0,0.0,138.04,31.38,24.66,36.42,0.04,-272.75,-272.75,-49,551,-940,23.3,0.7,-39.0,23.2,0.8,-38.0,5.73,2.41,-33.7,27.9
2013-01-24 01:01:00,0.0,1.9297,0.0009,403.71,0.44,-1.0,0.0,138.04,31.38,24.66,36.42,0.04,-272.75,-272.75,-49,551,-940,23.3,0.7,-39.0,23.2,0.8,-38.1,5.73,2.40,-33.6,28.0
2013-01-24 01:02:00,0.0,1.9298,0.0009,403.69,0.40,-1.0,0.0,138.04,31.39,24.66,36.42,0.04,-272.75,-272.75,-49,551,-940,23.3,0.7,-39.1,23.2,0.8,-38.2,5.73,2.40,-33.7,28.0
2013-01-24 01:03:00,0.0,1.9304,0.0011,403.64,0.36,-1.0,0.0,138.04,31.39,24.66,36.41,0.04,-272.75,-272.75,-49,551,-940,23.3,0.7,-39.2,23.2,0.8,-38.4,5.73,2.40,-33.7,27.9
2013-01-24 01:04:00,0.0,1.9302,0.0010,403.74,0.39,-1.0,0.0,138.04,31.39,24.65,36.41,0.04,-272.75,-272.75,-49,551,-940,23.3,0.7,-39.0,23.2,0.8,-38.3,5.73,2.39,-33.7,27.9
2013-01-24 01:05:00,0.0,1.9299,0.0011,403.74,0.43,-1.0,0.0,138.04,31.39,24.66,36.42,0.04,-272.75,-272.75,-49,551,-940,23.2,0.7,-39.0,23.1,0.8,-38.0,5.73,2.38,-33.7,28.0
2013-01-24 01:06:00,0.0,1.9301,0.0009,403.73,0.39,-1.0,0.0,138.04,31.39,24.65,36.41,0.04,-272.75,-272.75,-49,551,-940,23.3,0.7,-39.0,23.2,0.8,-38.1,5.73,2.39,-33.7,28.0
2013-01-24 01:07:00,0.0,1.9313,0.0011,403.74,0.46,-1.0,0.0,138.04,31.39,24.66,36.41,0.04,-272.75,-272.75,-49,551,-940,23.3,0.7,-39.0,23.2,0.8,-38.1,5.73,2.40,-33.7,28.0
2013-01-24 01:08:00,0.0,1.9322,0.0009,403.69,0.39,-1.0,0.0,138.04,31.39,24.65,36.41,0.04,-272.75,-272.75,-49,551,-940,23.3,0.7,-39.0,23.2,0.8,-38.1,5.73,2.41,-33.7,27.9
2013-01-24 01:09:00,0.0,1.9318,0.0010,403.55,0.39,-1.0,0.0,138.04,31.39,24.65,36.42,0.04,-272.75,-272.75,-49,551,-940,23.3,0.7,-39.0,23.2,0.8,-38.1,5.73,2.41,-33.7,27.9
2013-01-24 01:10:00,0.0,1.9309,0.0008,403.65,0.45,-1.0,0.0,138.04,31.39,24.66,36.42,0.04,-272.75,-272.75,-49,551,-940,23.3,0.7,-39.1,23.2,0.8,-38.1,5.73,2.41,-33.7,27.9
2013-01-24 01:11:00,0.0,1.9309,0.0009,403.43,0.41,-1.0,0.0,138.05,31.39,24.66,36.42,0.04,-272.75,-272.75,-49,551,-940,23.3,0.7,-38.9,23.2,0.8,-38.0,5.73,2.42,-33.7,28.0
2013-01-24 01:12:00,0.0,1.9309,0.0010,403.64,0.42,-1.0,0.0,138.05,31.39,24.66,36.41,0.04,-272.75,-272.75,-48,551,-940,23.3,0.7,-39.0,23.2,0.8,-38.2,5.73,2.42,-33.7,27.9
2013-01-24 01:13:00,0.0,1.9307,0.0010,403.45,0.44,-1.0,0.0,138.05,31.39,24.65,36.42,0.04,-272.75,-272.75,-49,551,-940,23.3,0.7,-39.3,23.2,0.8,-38.3,5.73,2.42,-33.7,27.8
2013-01-24 01:14:00,0.0,1.9300,0.0008,403.49,0.40,-1.0,0.0,138.04,31.39,24.66,36.41,0.04,-272.75,-272.75,-48,551,-940,23.3,0.7,-39.4,23.2,0.8,-38.4,5.73,2.42,-33.7,27.8
2013-01-24 01:15:00,0.0,1.9298,0.0010,403.51,0.38,-1.0,0.0,138.04,31.40,24.66,36.42,0.04,-272.75,-272.75,-49,551,-940,23.3,0.7,-39.4,23.2,0.8,-38.4,5.73,2.42,-33.7,27.8
2013-01-24 01:16:00,0.0,1.9298,0.0009,403.51,0.40,-1.0,0.0,138.05,31.40,24.65,36.41,0.04,-272.75,-272.75,-49,551,-940,23.3,0.7,-39.4,23.1,0.8,-38.4,5.73,2.41,-33.7,27.9
2013-01-24 01:17:00,0.0,1.9298,0.0010,403.56,0.39,-1.0,0.0,138.05,31.39,24.65,36.41,0.04,-272.75,-272.75,-49,551,-940,23.3,0.7,-39.3,23.1,0.8,-38.4,5.73,2.41,-33.7,27.9
2013-01-24 01:18:00,0.0,1.9304,0.0009,403.78,0.34,-1.0,0.0,138.05,31.39,24.66,36.41,0.04,-272.75,-272.75,-48,551,-940,23.2,0.7,-39.2,23.1,0.8,-38.4,5.73,2.41,-33.7,27.8
2013-01-24 01:19:00,0.0,1.9307,0.0009,403.70,0.37,-1.0,0.0,138.05,31.39,24.66,36.41,0.04,-272.75,-272.75,-49,551,-940,23.3,0.7,-39.0,23.1,0.8,-38.1,5.73,2.41,-33.7,27.9
2013-01-24 01:20:00,0.0,1.9302,0.0009,403.66,0.38,-1.0,0.0,138.05,31.39,24.65,36.41,0.04,-272.75,-272.75,-49,551,-940,23.2,0.7,-39.0,23.1,0.8,-38.1,5.73,2.41,-33.7,27.9
2013-01-24 01:21:00,0.0,1.9298,0.0009,403.61,0.39,-1.0,0.0,138.05,31.39,24.65,36.41,0.04,-272.75,-272.75,-48,551,-940,23.2,0.7,-38.9,23.1,0.8,-38.0,5.73,2.40,-33.7,27.9
2013-01-24 01:22:00,0.0,1.9307,0.0010,403.61,0.38,-1.0,0.0,138.05,31.39,24.65,36.41,0.04,-272.75,-272.75,-49,551,-940,23.2,0.7,-39.0,23.1,0.8,-38.2,5.73,2.40,-33.7,27.8
2013-01-24 01:23:00,0.0,1.9291,0.0010,403.55,0.42,-1.0,0.0,138.05,31.39,24.65,36.41,0.04,-272.75,-272.75,-49,551,-940,23.2,0.7,-39.4,23.1,0.8,-38.4,5.73,2.39,-33.8,27.9
2013-01-24 01:24:00,0.0,1.9292,0.0013,403.41,0.46,-1.0,0.0,138.05,31.39,24.66,36.42,0.04,-272.75,-272.75,-48,551,-940,23.3,0.7,-39.4,23.2,0.8,-38.5,5.73,2.40,-33.7,27.8
2013-01-24 01:25:00,0.0,1.9299,0.0008,403.50,0.39,-1.0,0.0,138.05,31.40,24.65,36.42,0.04,-272.75,-272.75,-49,551,-940,23.2,0.7,-39.7,23.2,0.7,-38.8,5.73,2.40,-33.7,27.8
2013-01-24 01:26:00,0.0,1.9299,0.0011,403.58,0.42,-1.0,0.0,138.04,31.40,24.66,36.42,0.04,-272.75,-272.75,-48,551,-940,23.3,0.7,-39.8,23.1,0.7,-38.8,5.73,2.40,-33.7,27.8
2013-01-24 01:27:00,0.0,1.9298,0.0011,403.42,0.37,-1.0,0.0,138.04,31.40,24.66,36.42,0.04,-272.75,-272.75,-48,551,-940,23.3,0.7,-39.7,23.2,0.8,-38.7,5.73,2.40,-33.7,27.9
2013-01-24 01:28:00,0.0,1.9293,0.0010,403.45,0.40,-1.0,0.0,138.05,31.40,24.66,36.41,0.04,-272.75,-272.75,-49,551,-940,23.3,0.7,-39.7,23.2,0.7,-38.8,5.73,2.40,-33.6,27.9
2013-01-24 01:29:00,0.0,1.9291,0.0010,403.50,0.39,-1.0,0.0,138.05,31.40,24.66,36.41,0.04,-272.75,-272.75,-49,551,-940,23.2,0.7,-39.7,23.2,0.7,-38.8,5.73,2.40,-33.6,27.9
2013-01-24 01:30:00,0.0,1.9291,0.0010,403.57,0.41,-1.0,0.0,138.04,31.40,24.66,36.41,0.04,-272.75,-272.75,-49,551,-940,23.3,0.7,-39.8,23.2,0.7,-38.7,5.73,2.41,-33.6,28.0
2013-01-24 01:31:00,0.0,1.9293,0.0010,403.46,0.45,-1.0,0.0,138.04,31.40,24.65,36.42,0.04,-272.75,-272.75,-49,551,-940,23.3,0.7,-39.8,23.2,0.7,-38.8,5.73,2.42,-33.6,28.0
2013-01-24 01:32:00,0.0,1.9290,0.0010,403.58,0.37,-1.0,0.0,138.04,31.40,24.66,36.41,0.04,-272.75,-272.75,-48,551,-940,23.3,0.7,-39.7,23.2,0.7,-38.8,5.73,2.43,-33.5,28.0
2013-01-24 01:33:00,0.0,1.9292,0.0010,403.51,0.39,-1.0,0.0,138.04,31.40,24.65,36.41,0.04,-272.75,-272.75,-49,551,-940,23.3,0.7,-39.7,23.2,0.8,-38.7,5.73,2.43,-33.5,28.0
2013-01-24 01:34:00,0.0,1.9297,0.0010,403.54,0.38,-1.0,0.0,138.04,31.41,24.65,36.41,0.04,-272.75,-272.75,-49,551,-940,23.3,0.7,-39.3,23.2,0.7,-38.7,5.73,2.42,-33.5,28.0
2013-01-24 01:35:00,0.0,1.9298,0.0010,403.58,0.44,-1.0,0.0,138.04,31.41,24.66,36.41,0.04,-272.75,-272.75,-49,551,-940,23.3,0.7,-39.3,23.2,0.8,-38.6,5.73,2.42,-33.5,28.0
2013-01-24 01:36:00,0.0,1.9294,0.0008,403.61,0.40,-1.0,0.0,138.04,31.41,24.66,36.41,0.04,-272.75,-272.75,-49,551,-940,23.3,0.7,-39.4,23.2,0.8,-38.6,5.73,2.41,-33.6,28.0
2013-01-24 01:37:00,0.0,1.9289,0.0009,403.37,0.39,-1.0,0.0,138.05,31.41,24.65,36.42,0.04,-272.75,-272.75,-49,551,-940,23.3,0.7,-39.4,23.2,0.8,-38.4,5.73,2.41,-33.6,28.0
2013-01-24 01:38:00,0.0,1.9282,0.0010,403.41,0.34,-1.0,0.0,138.05,31.41,24.66,36.42,0.04,-272.75,-272.75,-49,551,-940,23.3,0.7,-39.3,23.2,0.8,-38.3,5.73,2.41,-33.6,27.9
2013-01-24 01:39:00,0.0,1.9282,0.0009,403.48,0.37,-1.0,0.0,138.05,31.41,24.66,36.42,0.04,-272.75,-272.75,-49,551,-940,23.3,0.7,-39.3,23.2,0.8,-38.2,5.73,2.40,-33.6,27.9
2013-01-24 01:40:00,0.0,1.9284,0.0007,403.38,0.43,-1.0,0.0,138.05,31.41,24.66,36.41,0.04,-272.75,-272.75,-49,551,-940,23.3,0.7,-39.3,23.2,0.8,-38.1,5.73,2.40,-33.6,27.9
2013-01-24 01:41:00,0.0,1.9283,0.0010,403.45,0.36,-1.0,0.0,138.05,31.41,24.65,36.42,0.04,-272.75,-272.75,-49,551,-940,23.3,0.7,-39.4,23.2,0.8,-38.4,5.73,2.40,-33.6,27.9
2013-01-24 01:42:00,0.0,1.9280,0.0009,403.45,0.41,-1.0,0.0,138.05,31.41,24.65,36.41,0.04,-272.75,-272.75,-49,551,-940,23.3,0.7,-39.4,23.2,0.8,-38.5,5.73,2.41,-33.6,28.0
2013-01-24 01:43:00,0.0,1.9280,0.0007,403.53,0.47,-1.0,0.0,138.05,31.41,24.66,36.41,0.04,-272.75,-272.75,-49,551,-940,23.3,0.7,-39.3,23.2,0.8,-38.4,5.73,2.40,-33.6,27.9
2013-01-24 01:44:00,0.0,1.9283,0.0009,403.44,0.45,-1.0,0.0,138.05,31.41,24.65,36.42,0.04,-272.75,-272.75,-49,551,-940,23.3,0.7,-39.5,23.2,0.8,-38.4,5.73,2.39,-33.6,27.9
2013-01-24 01:45:00,0.0,1.9289,0.0008,403.52,0.36,-1.0,0.0,138.05,31.41,24.66,36.41,0.04,-272.75,-272.75,-49,551,-940,23.2,0.7,-39.8,23.1,0.8,-38.5,5.73,2.39,-33.6,27.9
2013-01-24 01:46:00,0.0,1.9287,0.0010,403.57,0.41,-1.0,0.0,138.04,31.41,24.66,36.41,0.04,-272.75,-272.75,-49,551,-940,23.3,0.7,-39.8,23.1,0.7,-38.8,5.73,2.40,-33.6,27.9
2013-01-24 01:47:00,0.0,1.9286,0.0011,403.44,0.42,-1.0,0.0,138.05,31.41,24.66,36.42,0.04,-272.75,-272.75,-49,551,-940,23.3,0.7,-39.7,23.1,0.7,-38.7,5.73,2.40,-33.6,27.9
2013-01-24 01:48:00,0.0,1.9293,0.0008,403.44,0.37,-1.0,0.0,138.05,31.41,24.65,36.42,0.04,-272.75,-272.75,-49,551,-940,23.2,0.7,-39.6,23.1,0.7,-38.8,5.73,2.40,-33.7,27.9
2013-01-24 01:49:00,0.0,1.9299,0.0009,403.55,0.37,-1.0,0.0,138.05,31.41,24.65,36.41,0.04,-272.75,-272.75,-49,551,-940,23.2,0.7,-39.7,23.1,0.8,-38.7,5.73,2.40,-33.7,27.9
2013-01-24 01:50:00,0.0,1.9300,0.0010,403.44,0.39,-1.0,0.0,138.05,31.41,24.66,36.41,0.04,-272.75,-272.75,-49,551,-940,23.2,0.7,-39.6,23.1,0.7,-38.7,5.73,2.40,-33.7,27.9
2013-01-24 01:51:00,0.0,1.9299,0.0009,403.51,0.36,-1.0,0.0,138.05,31.40,24.65,36.42,0.04,-272.75,-272.75,-49,551,-940,23.2,0.7,-39.7,23.1,0.8,-38.7,5.73,2.40,-33.7,27.9
2013-01-24 01:52:00,0.0,1.9290,0.0010,403.45,0.39,-1.0,0.0,138.05,31.40,24.66,36.42,0.04,-272.75,-272.75,-49,551,-940,23.2,0.7,-39.7,23.1,0.7,-38.7,5.73,2.41,-33.7,27.9
2013-01-24 01:53:00,0.0,1.9285,0.0008,403.44,0.33,-1.0,0.0,138.05,31.40,24.66,36.41,0.04,-272.75,-272.75,-49,551,-940,23.2,0.7,-39.6,23.1,0.7,-38.8,5.73,2.41,-33.7,27.9
2013-01-24 01:54:00,0.0,1.9287,0.0011,403.43,0.37,-1.0,0.0,138.05,31.40,24.66,36.42,0.04,-272.75,-272.75,-49,551,-940,23.2,0.7,-39.7,23.1,0.7,-38.7,5.73,2.41,-33.7,28.0
2013-01-24 01:55:00,0.0,1.9299,0.0010,403.49,0.42,-1.0,0.0,138.05,31.41,24.66,36.41,0.04,-272.75,-272.75,-48,551,-940,23.2,0.7,-39.7,23.2,0.7,-38.7,5.73,2.43,-33.6,28.0
2013-01-24 01:56:00,0.0,1.9292,0.0010,403.49,0.43,-1.0,0.0,138.05,31.41,24.66,36.42,0.04,-272.75,-272.75,-49,551,-940,23.3,0.7,-39.7,23.2,0.7,-38.8,5.73,2.43,-33.6,28.0
2013-01-24 01:57:00,0.0,1.9294,0.0008,403.53,0.36,-1.0,0.0,138.04,31.41,24.65,36.41,0.04,-272.75,-272.75,-48,551,-940,23.3,0.6,-40.1,23.2,0.7,-38.9,5.73,2.43,-33.6,28.0
2013-01-24 01:58:00,0.0,1.9294,0.0010,403.51,0.40,-1.0,0.0,138.04,31.41,24.66,36.41,0.04,-272.75,-272.75,-48,551,-940,23.3,0.6,-40.2,23.2,0.7,-39.2,5.73,2.42,-33.6,28.0
2013-01-24 01:59:00,0.0,1.9297,0.0011,403.56,0.37,-1.0,0.0,138.05,31.41,24.66,36.42,0.04,-272.75,-272.75,-48,551,-940,23.3,0.6,-40.3,23.2,0.7,-39.4,5.73,2.40,-33.6,28.0
2013-01-24 02:00:00,0.0,1.9326,0.0017,403.58,0.34,-1.0,0.0,138.04,31.41,24.65,36.42,0.04,-272.75,-272.75,-49,551,-940,23.3,0.6,-40.6,23.2,0.7,-39.6,5.73,2.39,-33.6,27.9
2013-01-24 02:01:00,0.0,1.9343,0.0009,403.61,0.37,-1.0,0.0,138.04,31.41,24.65,36.42,0.04,-272.75,-272.75,-49,551,-940,23.3,0.6,-40.8,23.2,0.7,-39.7,5.73,2.38,-33.6,28.0
2013-01-24 02:02:00,0.0,1.9320,0.0019,403.46,0.38,-1.0,0.0,138.04,31.41,24.65,36.42,0.04,-272.75,-272.75,-48,551,-940,23.3,0.6,-41.0,23.2,0.7,-39.7,5.73,2.38,-33.6,28.0
2013-01-24 02:03:00,0.0,1.9307,0.0012,403.55,0.35,-1.0,0.0,138.04,31.41,24.66,36.42,0.04,-272.75,-272.75,-48,551,-940,23.3,0.6,-41.0,23.2,0.7,-39.9,5.73,2.39,-33.6,28.0
2013-01-24 02:04:00,0.0,1.9323,0.0011,403.63,0.37,-1.0,0.0,138.04,31.41,24.66,36.41,0.04,-272.75,-272.75,-49,551,-940,23.3,0.6,-40.9,23.2,0.6,-40.2,5.73,2.41,-33.6,27.9
2013-01-24 02:05:00,0.0,1.9324,0.0011,403.34,0.36,-1.0,0.0,138.04,31.42,24.65,36.42,0.04,-272.74,-272.75,-49,551,-940,23.3,0.6,-41.0,23.2,0.6,-40.1,5.73,2.41,-33.6,28.0
2013-01-24 02:06:00,0.0,1.9312,0.0008,403.54,0.36,-1.0,0.0,138.04,31.42,24.66,36.41,0.04,-272.75,-272.75,-48,551,-940,23.3,0.6,-41.1,23.2,0.6,-40.2,5.73,2.41,-33.6,28.0
2013-01-24 02:07:00,0.0,1.9316,0.0008,403.53,0.40,-1.0,0.0,138.05,31.42,24.65,36.41,0.04,-272.75,-272.75,-48,551,-940,23.3,0.6,-41.0,23.2,0.7,-39.9,5.73,2.41,-33.6,27.9
2013-01-24 02:08:00,0.0,1.9312,0.0009,403.52,0.39,-1.0,0.0,138.04,31.41,24.66,36.41,0.04,-272.75,-272.75,-49,551,-940,23.3,0.6,-41.0,23.2,0.7,-39.9,5.73,2.42,-33.6,27.9
2013-01-24 02:09:00,0.0,1.9306,0.0010,403.39,0.34,-1.0,0.0,138.05,31.41,24.65,36.41,0.04,-272.75,-272.75,-49,551,-940,23.3,0.6,-41.0,23.2,0.7,-39.9,5.73,2.42,-33.7,28.0
2013-01-24 02:10:00,0.0,1.9306,0.0010,403.62,0.39,-1.0,0.0,138.05,31.41,24.65,36.41,0.04,-272.75,-272.75,-49,551,-940,23.3,0.6,-41.0,23.1,0.7,-39.9,5.73,2.43,-33.7,27.9
2013-01-24 02:11:00,0.0,1.9302,0.0010,403.55,0.40,-1.0,0.0,138.05,31.41,24.66,36.41,0.04,-272.75,-272.75,-49,551,-940,23.3,0.6,-41.0,23.2,0.7,-39.8,5.73,2.42,-33.7,28.0
2013-01-24 02:12:00,0.0,1.9304,0.0009,403.50,0.42,-1.0,0.0,138.05,31.41,24.65,36.42,0.04,-272.75,-272.75,-49,551,-940,23.3,0.6,-41.1,23.2,0.7,-39.8,5.73,2.42,-33.7,27.9
2013-01-24 02:13:00,0.0,1.9298,0.0008,403.52,0.38,-1.0,0.0,138.05,31.42,24.66,36.42,0.04,-272.75,-272.75,-48,551,-940,23.3,0.6,-41.0,23.2,0.7,-39.8,5.73,2.41,-33.7,27.9
2013-01-24 02:14:00,0.0,1.9303,0.0010,403.50,0.36,-1.0,0.0,138.05,31.42,24.65,36.42,0.04,-272.75,-272.75,-48,551,-940,23.3,0.6,-40.9,23.1,0.7,-39.9,5.73,2.41,-33.7,27.9
2013-01-24 02:15:00,0.0,1.9305,0.0009,403.44,0.31,-1.0,0.0,138.05,31.42,24.65,36.42,0.04,-272.75,-272.75,-49,551,-940,23.3,0.6,-41.0,23.1,0.7,-39.7,5.73,2.41,-33.7,28.0
2013-01-24 02:16:00,0.0,1.9291,0.0009,403.45,0.38,-1.0,0.0,138.05,31.42,24.66,36.41,0.04,-272.75,-272.75,-48,551,-940,23.2,0.6,-40.9,23.1,0.7,-39.5,5.73,2.40,-33.7,27.9
2013-01-24 02:17:00,0.0,1.9292,0.0010,403.48,0.38,-1.0,0.0,138.05,31.42,24.65,36.41,0.04,-272.75,-272.75,-48,551,-940,23.3,0.6,-40.9,23.1,0.7,-39.4,5.73,2.40,-33.8,27.9
2013-01-24 02:18:00,0.0,1.9282,0.0010,403.35,0.38,-1.0,0.0,138.05,31.42,24.66,36.42,0.04,-272.75,-272.75,-48,551,-940,23.3,0.6,-40.5,23.1,0.7,-39.5,5.73,2.39,-33.8,27.9